P/2015 T3 ( PanSTARRS )

Japanese version
Home page
Updated on November 1, 2015

---------------------------------------------------------------------

* Profile

Discovery Date October 13, 2015
Magnitude 20.9 mag
Discoverer Pan-STARRS 1 telescope (Haleakala)

* Pictures

* Orbital Elements

T 2014 Dec. 21.70570 TT                                 MPCW
q   2.1276976            (2000.0)            P               Q
n   0.10953353     Peri.  178.63296     +0.48740200     +0.85108097
a   4.3261808      Node   120.50194     -0.80325938     +0.52467687
e   0.5081811      Incl.   13.09371     -0.34236479     -0.01937423
P   9.00
From 38 observations 2015 Oct. 13-16.

* Magnitudes Graph

        m1 = 13.5 + 5 log d + 10.0 log r

---------------------------------------------------------------------

The orbital elements are published on M.P.E.C. 2015-U02.
The magnitudes graphs are made with Comet for Windows.

---------------------------------------------------------------------

Copyright(C) Seiichi Yoshida (comet@aerith.net). All rights reserved.